YSCBYMER

Guest
Details From YSCB - Canberra
To YMER - Merimbula
Flight Number -
Tags decoded
Created
Modified
Stats Distance 102 nm / 189 km
Max Altitude 0 ft / 0 m
Waypoints 2
Social Downloads 0
Likes 0
Share VATSIM

Download

Looking for another format? Having issues loading an existing format? Contact us
Advertisement - Login to hide

Notes

Requested: YSCB YMER

Route

YSCB YMER

ID Type Via Altitude Latitude Longitude Leg Dist Tot Dist Heading (true) Name
O YSCB APT - 0 ft / 0 m -35.30548˚ 149.19334˚ - 0 nm - Canberra
O YMER APT - 0 ft / 0 m -36.90688˚ 149.90163˚ 102 nm 102 nm 161° / 160° Merimbula

Altitude Profile

Advertisement - Login to hide

YSCB

Details ICAO YSCB (CBR)
Name Canberra
Region Australia
Timezone Australia/Sydney (UTC+10.0)
Stats Elevation 1,887 ft / 575 m (AMSL)
Location -35.305478° 149.193342°
Runways 2
Magnetic Variation 12.406° E

METAR

YSCB 211700Z AUTO 30014KT 9999 // NCD 10/04 Q1019

Decode

TAF

TAF YSCB 211121Z 2112/2212 30012KT 9999 FEW045 FM221000 32005KT CAVOK PROB30 2118/2123 3000 BR SCT001

Decode

Departure Runways

ID Width Length Bearing (true) Bearing (mag) Surface Threshold Offset Overrun Length
12 148 ft / 45 m 5,508 ft / 1,679 m 130.00° 117.59° Asphalt 0 ft / 0 m 0 ft / 0 m
17 148 ft / 45 m 10,793 ft / 3,290 m 180.00° 167.59° Asphalt 0 ft / 0 m 0 ft / 0 m
30 148 ft / 45 m 5,508 ft / 1,679 m 310.00° 297.59° Asphalt 226 ft / 69 m 0 ft / 0 m
35 148 ft / 45 m 10,793 ft / 3,290 m 0.00° 347.59° Asphalt 1,998 ft / 609 m 0 ft / 0 m

YMER

Details ICAO YMER (MIM)
Name Merimbula
Region Australia
Timezone Australia/Sydney (UTC+10.0)
Stats Elevation 6 ft / 2 m (AMSL)
Location -36.906875° 149.901626°
Runways 1
Magnetic Variation 13.331° E

METAR

YMER 211700Z AUTO 29006KT 9999 // NCD 15/05 Q1015

Decode

TAF

Not found

Destination Runways

ID Width Length Bearing (true) Bearing (mag) Surface Threshold Offset Overrun Length
03 98 ft / 30 m 5,252 ft / 1,601 m 33.80° 20.47° Asphalt 0 ft / 0 m 0 ft / 0 m
21 98 ft / 30 m 5,252 ft / 1,601 m 213.80° 200.47° Asphalt 0 ft / 0 m 0 ft / 0 m

Popular Alternatives